TimeCST,TemperatureF,Dew PointF,Humidity,Sea Level PressureIn,VisibilityMPH,Wind Direction,Wind SpeedMPH,Gust SpeedMPH,PrecipitationIn,Events,Conditions,WindDirDegrees,DateUTC
12:04 AM,21.2,15.8,80,29.99,3.0,WNW,19.6,29.9,0.00,Snow,Light Snow,300,2012-11-23 06:04:00
12:33 AM,19.4,14.0,80,30.01,1.8,NW,24.2,38.0,0.00,Snow,Light Snow,310,2012-11-23 06:33:00
12:49 AM,19.4,14.0,80,30.01,3.0,WNW,21.9,32.2,0.00,Snow,Light Snow,300,2012-11-23 06:49:00
12:53 AM,19.9,14.0,78,30.08,3.0,WNW,21.9,32.2,0.00,Snow,Light Snow,300,2012-11-23 06:53:00
1:18 AM,19.4,14.0,80,30.02,2.0,WNW,24.2,34.5,0.00,Snow,Light Snow,300,2012-11-23 07:18:00
1:24 AM,19.4,14.0,80,30.02,1.8,WNW,24.2,33.4,0.00,Snow,Light Snow,300,2012-11-23 07:24:00
1:41 AM,19.4,14.0,80,30.04,2.0,WNW,16.1,31.1,0.00,Snow,Light Snow,300,2012-11-23 07:41:00
1:49 AM,19.4,14.0,80,30.04,1.5,NW,23.0,31.1,0.00,Snow,Light Snow,310,2012-11-23 07:49:00
1:53 AM,19.0,14.0,81,30.11,1.5,WNW,25.3,33.4,0.00,Snow,Light Snow,300,2012-11-23 07:53:00
2:45 AM,17.6,10.4,73,30.08,2.0,WNW,27.6,36.8,0.00,Snow,Light Snow,300,2012-11-23 08:45:00
2:53 AM,18.0,10.9,74,30.15,2.5,NW,27.6,35.7,0.00,Snow,Light Snow,310,2012-11-23 08:53:00
3:00 AM,17.6,10.4,73,30.08,4.0,NW,25.3,35.7,0.00,Snow,Light Snow,310,2012-11-23 09:00:00
3:53 AM,17.1,10.9,77,30.18,8.0,NW,20.7,34.5,0.00,Snow,Light Snow,310,2012-11-23 09:53:00
4:53 AM,17.1,10.0,74,30.22,8.0,NW,20.7,31.1,0.00,Snow,Light Snow,320,2012-11-23 10:53:00
5:53 AM,17.1,9.0,71,30.25,10.0,NW,23.0,34.5,0.00,,Overcast,310,2012-11-23 11:53:00
6:53 AM,17.1,10.0,74,30.27,9.0,NW,21.9,28.8,0.00,,Overcast,320,2012-11-23 12:53:00
7:53 AM,18.0,10.0,71,30.31,10.0,NW,21.9,29.9,N/A,,Overcast,320,2012-11-23 13:53:00
8:53 AM,18.0,10.0,71,30.34,10.0,NW,19.6,26.5,N/A,,Mostly Cloudy,310,2012-11-23 14:53:00
9:53 AM,19.9,10.9,68,30.37,10.0,NW,16.1,27.6,N/A,,Scattered Clouds,320,2012-11-23 15:53:00
10:53 AM,21.9,12.0,66,30.38,10.0,NW,20.7,27.6,0.00,,Clear,320,2012-11-23 16:53:00
11:53 AM,24.1,12.0,60,30.38,10.0,NW,16.1,28.8,0.00,,Clear,320,2012-11-23 17:53:00
12:53 PM,24.1,12.9,62,30.39,10.0,NW,15.0,28.8,N/A,,Clear,320,2012-11-23 18:53:00
1:53 PM,25.0,12.0,58,30.39,10.0,NNW,18.4,24.2,0.00,,Partly Cloudy,330,2012-11-23 19:53:00
2:53 PM,24.1,12.0,60,30.40,10.0,NW,15.0,-,0.00,,Partly Cloudy,320,2012-11-23 20:53:00
3:53 PM,21.9,10.9,63,30.42,10.0,NW,19.6,-,N/A,,Clear,310,2012-11-23 21:53:00
4:53 PM,19.0,10.0,68,30.45,10.0,WNW,16.1,-,N/A,,Clear,300,2012-11-23 22:53:00
5:53 PM,17.1,9.0,71,30.45,10.0,NW,13.8,-,N/A,,Clear,310,2012-11-23 23:53:00
6:53 PM,15.1,8.1,74,30.46,10.0,NW,11.5,-,N/A,,Clear,310,2012-11-24 00:53:00
7:53 PM,12.9,7.0,77,30.46,10.0,NW,9.2,-,N/A,,Clear,310,2012-11-24 01:53:00
8:53 PM,12.0,7.0,80,30.47,10.0,NW,6.9,-,N/A,,Clear,320,2012-11-24 02:53:00
9:53 PM,10.0,5.0,80,30.45,10.0,NW,6.9,-,N/A,,Clear,320,2012-11-24 03:53:00
10:53 PM,8.1,3.9,83,30.44,10.0,NW,5.8,-,N/A,,Clear,320,2012-11-24 04:53:00
11:53 PM,8.1,3.9,83,30.44,10.0,NW,5.8,-,N/A,,Clear,320,2012-11-24 05:53:00